Location: Codford Saint Peter
(51.1597°N, 2.0531°W)
Time: 13:53:41
(UTC+00:00)

Envisat - Pass Details

Date: 31 January 2022
Orbit: 764 x 765 km, 98.2° (Epoch: 17 May)

Event Time Altitude Azimuth Distance (km) Brightness Sun altitude
Rises 17:31:06 0° 214° (SW) 3,219 7.2 -5.7°
Reaches altitude 10° 17:34:20 10° 236° (WSW) 2,299 7.1 -6.2°
Maximum altitude 17:37:21 16° 273° (W) 1,932 6.3 -6.6°
Drops below altitude 10° 17:40:24 10° 310° (NW) 2,310 5.9 -7.1°
Sets 17:43:40 0° 333° (NNW) 3,243 6.4 -7.6°
